Change the Weather History Date:

Saturday, March 16, 2013

  Actual Average Record
Temperature  
Mean Temperature 49 °F 45 °F  
Max Temperature 56 °F 54 °F 79 °F (2002)
Min Temperature 41 °F 36 °F 22 °F (1992)
Degree Days  
Heating Degree Days 16    
Month to date heating degree days 350  
Since 1 July heating degree days 3047  
Cooling Degree Days 0    
Month to date cooling degree days 0  
Year to date cooling degree days 0  
Moisture  
Dew Point 37 °F    
Average Humidity 57    
Maximum Humidity 76    
Minimum Humidity 38    
Precipitation  
Precipitation 0.10 in 0.14 in 1.10 in (2007)
Month to date precipitation 3.27 2.02  
Year to date precipitation 11.51 7.82  
Sea Level Pressure  
Sea Level Pressure 29.77 in    
Wind  
Wind Speed 7 mph (ENE)    
Max Wind Speed 17 mph    
Max Gust Speed 22 mph    
Visibility 8 miles    
Events Rain    
T = Trace of Precipitation, MM = Missing Value Source: NWS Daily Summary

Daily Weather History Graph

Daily Weather History Graph

Search for Another Location

Airport or City:

Trip Planner

Search our weather history database for the weather conditions in past years. The results will help you decide how hot, cold, wet, or windy it might be!

Date:

Astronomy

Mar. 16, 2013 Rise Set
Actual Time 7:11 AM EDT 7:10 PM EDT
Civil Twilight 6:44 AM EDT 7:36 PM EDT
Nautical Twilight 6:14 AM EDT 8:07 PM EDT
Astronomical Twilight 5:43 AM EDT 8:37 PM EDT
Moon 9:44 AM EDT (3/16) No Moon Set
Length of Visible Light 12h 51m
Length of Day
11h 59m
Waxing Crescent, 23% of the Moon is Illuminated
Mar 16
Waxing Crescent
Mar 19
First Quarter
Mar 27
Full
Apr 3
Last Quarter
Apr 10
New

Hourly Weather History & Observations

Time (EDT) Temp. Windchill Dew Point Humidity Pressure Visibility Wind Dir Wind Speed Gust Speed Precip Events Conditions
12:54 AM 55.0 °F - 30.9 °F 40% 29.80 in 10.0 mi West 10.4 mph - N/A   Clear
1:54 AM 53.1 °F - 32.0 °F 45% 29.80 in 10.0 mi West 12.7 mph - N/A   Clear
2:54 AM 48.0 °F - 33.1 °F 56% 29.81 in 10.0 mi WNW 4.6 mph - N/A   Clear
3:54 AM 46.9 °F - 34.0 °F 61% 29.80 in 10.0 mi WNW 4.6 mph - N/A   Scattered Clouds
4:54 AM 42.1 °F 40.2 °F 33.1 °F 70% 29.80 in 10.0 mi WNW 3.5 mph - N/A   Mostly Cloudy
5:54 AM 42.1 °F - 33.1 °F 70% 29.80 in 10.0 mi Calm Calm - N/A   Mostly Cloudy
6:54 AM 44.1 °F - 34.0 °F 68% 29.82 in 10.0 mi Calm Calm - N/A   Overcast
7:54 AM 45.0 °F 43.5 °F 36.0 °F 71% 29.83 in 10.0 mi North 3.5 mph - N/A   Overcast
8:54 AM 48.9 °F - 34.0 °F 56% 29.82 in 10.0 mi East 6.9 mph - N/A   Overcast
9:54 AM 48.9 °F - 35.1 °F 59% 29.84 in 10.0 mi ESE 4.6 mph - N/A   Overcast
10:54 AM 50.0 °F - 35.1 °F 57% 29.81 in 10.0 mi SE 8.1 mph - 0.00 in Rain Light Rain
11:54 AM 53.1 °F - 36.0 °F 52% 29.77 in 10.0 mi SE 9.2 mph - 0.00 in   Clear
12:54 PM 53.1 °F - 37.0 °F 55% 29.76 in 10.0 mi South 8.1 mph - N/A   Clear
1:54 PM 53.1 °F - 37.0 °F 55% 29.73 in 10.0 mi North - - N/A   Clear
2:54 PM 50.0 °F - 37.9 °F 63% 29.72 in 9.0 mi South 8.1 mph - 0.00 in Rain Light Rain
3:54 PM 48.9 °F - 41.0 °F 74% 29.66 in 9.0 mi SSW 17.3 mph - 0.01 in   Partly Cloudy
4:54 PM 51.1 °F - 42.1 °F 71% 29.64 in 9.0 mi SSW 11.5 mph - N/A   Scattered Clouds
5:54 PM 53.1 °F - 42.1 °F 66% 29.65 in 9.0 mi South 5.8 mph - N/A   Mostly Cloudy
6:54 PM 50.0 °F - 41.0 °F 71% 29.68 in 9.0 mi SW 5.8 mph - N/A   Clear
7:54 PM 50.0 °F - 43.0 °F 77% 29.70 in 2.5 mi East 3.5 mph - 0.05 in Rain Rain
8:01 PM 50.0 °F - 43.0 °F 77% 29.73 in 4.0 mi Calm Calm - 0.01 in Rain Light Rain
8:26 PM 50.0 °F - 44.1 °F 80% 29.73 in 6.0 mi NE 6.9 mph - 0.04 in   Haze
8:54 PM 50.0 °F - 44.1 °F 80% 29.75 in 5.0 mi NNE 4.6 mph - 0.04 in   Haze
9:04 PM 48.9 °F - 42.1 °F 77% 29.76 in 5.0 mi East 8.1 mph - N/A   Haze
9:46 PM 46.9 °F - 41.0 °F 80% 29.78 in 7.0 mi NNE 11.5 mph - N/A   Overcast
9:54 PM 46.9 °F - 39.9 °F 77% 29.78 in 7.0 mi NNE 12.7 mph - N/A   Overcast
10:54 PM 44.1 °F 38.1 °F 36.0 °F 73% 29.83 in 10.0 mi NNE 11.5 mph - N/A   Overcast
11:54 PM 42.1 °F 35.7 °F 34.0 °F 73% 29.86 in 10.0 mi NNE 11.5 mph - N/A   Mostly Cloudy